Weather History for KMIE - February, 2013

Change the Weather History Date:

Wednesday, February 27, 2013

  Actual Average Record
Temperature  
Mean Temperature 38 °F 33 °F  
Max Temperature 43 °F 42 °F 65 °F (1976)
Min Temperature 32 °F 25 °F -10 °F (1963)
Degree Days  
Heating Degree Days 27 32  
Month to date heating degree days 908 957  
Since 1 July heating degree days 3985 4350  
Cooling Degree Days 0 0  
Month to date cooling degree days 0 0  
Year to date cooling degree days 0 0  
Moisture  
Dew Point 31 °F    
Average Humidity 87    
Maximum Humidity 92    
Minimum Humidity 82    
Precipitation  
Precipitation 0.06 in 0.08 in 2.10 in (1977)
Month to date precipitation 1.51 2.22  
Year to date precipitation 5.66 4.45  
Sea Level Pressure  
Sea Level Pressure 29.60 in    
Wind  
Wind Speed 12 mph (WSW)    
Max Wind Speed 20 mph    
Max Gust Speed 25 mph    
Visibility 4 miles    
Events Rain , Snow    
T = Trace of Precipitation, MM = Missing Value Source: NWS Daily Summary

Daily Weather History Graph

Daily Weather History Graph

Search for Another Location

Airport or City:

Trip Planner

Search our weather history database for the weather conditions in past years. The results will help you decide how hot, cold, wet, or windy it might be!

Date:

Astronomy

Feb. 27, 2013 Rise Set
Actual Time 7:17 AM EST 6:31 PM EST
Civil Twilight 6:50 AM EST 6:58 PM EST
Nautical Twilight 6:18 AM EST 7:30 PM EST
Astronomical Twilight 5:47 AM EST 8:01 PM EST
Moon 8:52 PM EST (2/27) 7:52 AM EST (2/27)
Length of Visible Light 12h 08m
Length of Day
11h 13m
Waning Gibbous, 96% of the Moon is Illuminated
Feb 27
Waning Gibbous
Mar 4
Last Quarter
Mar 11
New
Mar 19
First Quarter
Mar 27
Full

Hourly Weather History & Observations

Time (EST) Temp. Windchill Dew Point Humidity Pressure Visibility Wind Dir Wind Speed Gust Speed Precip Events Conditions
12:40 AM 42.8 °F 37.0 °F 39.2 °F 87% 29.45 in 10.0 mi WSW 10.4 mph - N/A   Overcast
12:53 AM 43.0 °F 35.7 °F 37.9 °F 82% 29.46 in 10.0 mi WSW 15.0 mph - N/A   Overcast
1:53 AM 43.0 °F 37.7 °F 37.9 °F 82% 29.48 in 10.0 mi SW 9.2 mph - N/A   Overcast
2:20 AM 42.8 °F 37.0 °F 37.4 °F 81% 29.48 in 10.0 mi WSW 10.4 mph - N/A   Overcast
2:53 AM 42.1 °F 37.1 °F 37.9 °F 85% 29.49 in 8.0 mi SW 8.1 mph 16.1 mph N/A   Overcast
3:53 AM 41.0 °F 34.7 °F 37.9 °F 89% 29.49 in 4.0 mi SW 10.4 mph - N/A   Overcast
5:48 AM 39.2 °F 32.0 °F 37.4 °F 93% 29.50 in 3.0 mi SW 11.5 mph - 0.00 in Rain Light Rain
5:53 AM 39.9 °F 31.8 °F 37.0 °F 89% 29.51 in 3.0 mi WSW 15.0 mph 23.0 mph 0.00 in Rain Light Rain
6:53 AM 37.0 °F 28.5 °F 34.0 °F 89% 29.55 in 3.0 mi West 13.8 mph - 0.01 in   Overcast
7:16 AM 35.6 °F 26.2 °F 33.8 °F 93% 29.55 in 5.0 mi West 15.0 mph - 0.01 in Rain Light Rain
7:53 AM 35.1 °F 27.9 °F 33.1 °F 92% 29.57 in 4.0 mi WSW 9.2 mph - 0.01 in Snow Light Snow
8:31 AM 35.6 °F 27.5 °F 32.0 °F 87% 29.58 in 2.5 mi WSW 11.5 mph - 0.01 in Snow Light Snow
8:53 AM 35.1 °F 24.8 °F 32.0 °F 89% 29.60 in 2.5 mi WSW 17.3 mph - 0.01 in Snow Light Snow
9:53 AM 35.1 °F 26.9 °F 32.0 °F 89% 29.60 in 2.5 mi WSW 11.5 mph - 0.00 in   Overcast
10:00 AM 35.6 °F 27.1 °F 32.0 °F 87% 29.60 in 4.0 mi WSW 12.7 mph 19.6 mph N/A   Overcast
10:21 AM 35.6 °F 29.2 °F 32.0 °F 87% 29.60 in 2.5 mi WSW 8.1 mph - 0.00 in   Overcast
10:53 AM 35.1 °F 26.4 °F 32.0 °F 89% 29.61 in 2.5 mi WSW 12.7 mph - 0.00 in   Overcast
11:02 AM 35.6 °F 27.5 °F 32.0 °F 87% 29.60 in 3.0 mi WSW 11.5 mph 18.4 mph N/A   Overcast
11:44 AM 35.6 °F 25.9 °F 30.2 °F 81% 29.60 in 7.0 mi WSW 16.1 mph 20.7 mph N/A   Overcast
11:53 AM 35.1 °F 26.9 °F 30.9 °F 85% 29.60 in 8.0 mi WSW 11.5 mph 21.9 mph N/A   Overcast
12:35 PM 35.6 °F 27.5 °F 30.2 °F 81% 29.60 in 10.0 mi SW 11.5 mph - N/A   Overcast
12:53 PM 36.0 °F 26.7 °F 30.0 °F 79% 29.60 in 10.0 mi WSW 15.0 mph 21.9 mph N/A   Overcast
1:53 PM 36.0 °F 29.6 °F 30.0 °F 79% 29.60 in 10.0 mi WSW 8.1 mph 20.7 mph N/A   Overcast
2:21 PM 35.6 °F 25.9 °F 30.2 °F 81% 29.60 in 2.0 mi WSW 16.1 mph 23.0 mph 0.00 in Snow Light Snow
2:30 PM 35.6 °F 27.1 °F 30.2 °F 81% 29.60 in 1.2 mi WSW 12.7 mph 20.7 mph 0.00 in Snow Light Snow
2:38 PM 35.6 °F 28.6 °F 30.2 °F 81% 29.60 in 1.0 mi WSW 9.2 mph - 0.00 in Snow Light Snow
2:53 PM 35.1 °F 27.9 °F 30.9 °F 85% 29.61 in 1.0 mi WSW 9.2 mph - 0.01 in Snow Light Snow
3:10 PM 35.6 °F 27.5 °F 30.2 °F 81% 29.61 in 2.0 mi WSW 11.5 mph - 0.00 in Snow Light Snow
3:21 PM 35.6 °F 26.2 °F 30.2 °F 81% 29.61 in 4.0 mi WSW 15.0 mph - 0.00 in Snow Light Snow
3:48 PM 35.6 °F 27.1 °F 30.2 °F 81% 29.61 in 1.8 mi WSW 12.7 mph - 0.00 in Snow Light Snow
3:53 PM 35.1 °F 26.9 °F 30.0 °F 82% 29.62 in 1.5 mi WSW 11.5 mph 21.9 mph 0.00 in Snow Light Snow
4:05 PM 35.6 °F 25.5 °F 30.2 °F 81% 29.61 in 1.2 mi WSW 17.3 mph - 0.01 in Snow Light Snow
4:19 PM 35.6 °F 28.0 °F 30.2 °F 81% 29.62 in 2.0 mi WSW 10.4 mph - 0.01 in Snow Light Snow
4:28 PM 35.6 °F 25.9 °F 30.2 °F 81% 29.62 in 1.5 mi WSW 16.1 mph 20.7 mph 0.01 in Snow Light Snow
4:53 PM 34.0 °F 26.6 °F 30.0 °F 85% 29.63 in 1.2 mi WSW 9.2 mph 19.6 mph 0.01 in Snow Light Snow
5:50 PM 33.8 °F 23.5 °F 30.2 °F 87% 29.63 in 2.0 mi WSW 16.1 mph 20.7 mph 0.01 in Snow Light Snow
5:53 PM 34.0 °F 23.8 °F 30.0 °F 85% 29.64 in 2.0 mi WSW 16.1 mph 20.7 mph 0.01 in Snow Light Snow
6:00 PM 33.8 °F 25.3 °F 30.2 °F 87% 29.64 in 2.0 mi WSW 11.5 mph 20.7 mph 0.00 in Snow Light Snow
6:13 PM 33.8 °F 23.9 °F 30.2 °F 87% 29.64 in 2.5 mi WSW 15.0 mph - 0.00 in Snow Light Snow
6:25 PM 33.8 °F 24.8 °F 28.4 °F 81% 29.64 in 4.0 mi WSW 12.7 mph 21.9 mph 0.00 in Snow Light Snow
6:53 PM 34.0 °F 24.6 °F 28.9 °F 82% 29.66 in 4.0 mi WSW 13.8 mph - 0.00 in Snow Light Snow
7:12 PM 33.8 °F 24.8 °F 28.4 °F 81% 29.65 in 4.0 mi WSW 12.7 mph - 0.00 in Snow Light Snow
7:49 PM 33.8 °F 23.9 °F 28.4 °F 81% 29.66 in 2.5 mi WSW 15.0 mph - 0.00 in Snow Light Snow
7:53 PM 33.1 °F 23.9 °F 28.9 °F 85% 29.67 in 3.0 mi WSW 12.7 mph 20.7 mph 0.00 in Snow Light Snow
9:04 PM 33.8 °F 25.3 °F 28.4 °F 81% 29.66 in 5.0 mi West 11.5 mph 20.7 mph 0.00 in Snow Light Snow
9:24 PM 33.8 °F - 28.4 °F 81% 29.66 in 2.5 mi North - - 0.00 in Snow Light Snow
9:31 PM 33.8 °F 25.3 °F 28.4 °F 81% 29.66 in 3.0 mi West 11.5 mph 23.0 mph 0.00 in Snow Light Snow
9:49 PM 33.8 °F 25.8 °F 28.4 °F 81% 29.65 in 2.5 mi WSW 10.4 mph 19.6 mph 0.00 in Snow Light Snow
9:50 PM 33.8 °F 25.8 °F 28.4 °F 81% 29.65 in 2.5 mi WSW 10.4 mph 19.6 mph 0.00 in Snow Light Snow
9:53 PM 33.1 °F 24.9 °F 28.0 °F 82% 29.67 in 2.5 mi WSW 10.4 mph 19.6 mph 0.00 in Snow Light Snow
10:43 PM 33.8 °F 25.8 °F 28.4 °F 81% 29.65 in 3.0 mi WSW 10.4 mph 18.4 mph 0.00 in Snow Light Snow
10:50 PM 33.8 °F 25.3 °F 28.4 °F 81% 29.65 in 2.5 mi WSW 11.5 mph - 0.00 in Snow Light Snow
10:53 PM 33.1 °F 24.4 °F 28.9 °F 85% 29.67 in 2.5 mi WSW 11.5 mph - 0.00 in Snow Light Snow
11:16 PM 32.0 °F 23.6 °F 28.4 °F 87% 29.65 in 1.8 mi WSW 10.4 mph - 0.00 in Snow Light Snow
11:53 PM 32.0 °F 23.0 °F 28.0 °F 85% 29.66 in 2.5 mi WSW 11.5 mph - 0.00 in Snow Light Snow